TimeCST,TemperatureF,Dew PointF,Humidity,Sea Level PressureIn,VisibilityMPH,Wind Direction,Wind SpeedMPH,Gust SpeedMPH,PrecipitationIn,Events,Conditions,WindDirDegrees,DateUTC
12:53 AM,59.0,52.0,78,30.12,10.0,South,4.6,-,N/A,,Clear,170,2014-03-02 06:53:00
1:53 AM,59.0,54.0,83,30.12,10.0,South,6.9,-,N/A,,Clear,170,2014-03-02 07:53:00
2:53 AM,57.9,54.0,87,30.12,10.0,South,8.1,-,N/A,,Clear,170,2014-03-02 08:53:00
3:13 AM,59.0,55.4,88,30.11,10.0,SE,5.8,-,N/A,,Mostly Cloudy,130,2014-03-02 09:13:00
3:53 AM,57.0,54.0,89,30.12,10.0,South,6.9,-,N/A,,Scattered Clouds,180,2014-03-02 09:53:00
4:34 AM,55.4,53.6,94,30.14,8.0,Calm,Calm,-,N/A,,Mostly Cloudy,0,2014-03-02 10:34:00
4:47 AM,53.6,51.8,94,30.14,1.8,Calm,Calm,-,N/A,,Mostly Cloudy,0,2014-03-02 10:47:00
4:53 AM,55.0,53.1,93,30.13,3.0,South,5.8,-,N/A,,Mostly Cloudy,170,2014-03-02 10:53:00
5:25 AM,55.4,53.6,94,30.15,8.0,Calm,Calm,-,N/A,,Mostly Cloudy,0,2014-03-02 11:25:00
5:53 AM,55.0,54.0,96,30.17,6.0,Calm,Calm,-,N/A,,Overcast,0,2014-03-02 11:53:00
6:53 AM,55.9,55.0,97,30.19,5.0,SSW,4.6,-,N/A,,Overcast,200,2014-03-02 12:53:00
7:22 AM,57.2,55.4,94,30.19,5.0,South,8.1,-,N/A,,Overcast,170,2014-03-02 13:22:00
7:53 AM,57.0,55.0,93,30.20,4.0,South,6.9,-,N/A,,Overcast,180,2014-03-02 13:53:00
8:51 AM,57.2,55.4,94,30.20,6.0,South,6.9,-,N/A,,Overcast,170,2014-03-02 14:51:00
8:53 AM,57.9,55.9,93,30.20,6.0,South,5.8,-,N/A,,Overcast,170,2014-03-02 14:53:00
9:14 AM,60.8,55.4,82,30.20,7.0,South,9.2,-,N/A,,Overcast,190,2014-03-02 15:14:00
9:21 AM,60.8,55.4,82,30.21,7.0,South,6.9,-,N/A,,Overcast,180,2014-03-02 15:21:00
9:53 AM,61.0,55.9,83,30.19,8.0,South,10.4,-,N/A,,Overcast,180,2014-03-02 15:53:00
10:53 AM,64.9,55.0,70,30.18,10.0,South,10.4,-,N/A,,Mostly Cloudy,190,2014-03-02 16:53:00
11:13 AM,66.2,55.4,68,30.17,10.0,South,8.1,-,N/A,,Scattered Clouds,180,2014-03-02 17:13:00
11:53 AM,69.1,55.9,63,30.14,9.0,SSE,8.1,-,N/A,,Mostly Cloudy,160,2014-03-02 17:53:00
12:53 PM,64.9,55.9,73,30.09,10.0,South,9.2,-,N/A,,Clear,190,2014-03-02 18:53:00
1:53 PM,75.0,55.9,51,30.04,10.0,South,12.7,19.6,N/A,,Mostly Cloudy,190,2014-03-02 19:53:00
2:53 PM,75.9,55.0,48,30.01,10.0,South,8.1,-,N/A,,Clear,180,2014-03-02 20:53:00
3:53 PM,75.0,54.0,48,29.98,10.0,South,15.0,-,N/A,,Clear,190,2014-03-02 21:53:00
4:53 PM,73.9,54.0,50,29.96,10.0,South,10.4,-,N/A,,Clear,170,2014-03-02 22:53:00
5:53 PM,71.1,54.0,55,29.94,10.0,South,8.1,-,N/A,,Clear,170,2014-03-02 23:53:00
6:53 PM,69.1,54.0,58,29.93,10.0,SSE,3.5,-,N/A,,Clear,160,2014-03-03 00:53:00
7:53 PM,66.9,54.0,63,29.92,10.0,South,5.8,-,N/A,,Mostly Cloudy,170,2014-03-03 01:53:00
8:53 PM,68.0,55.0,63,29.90,10.0,South,10.4,-,N/A,,Partly Cloudy,180,2014-03-03 02:53:00
9:53 PM,64.0,57.9,80,29.91,10.0,SSW,11.5,24.2,N/A,,Mostly Cloudy,200,2014-03-03 03:53:00
10:53 PM,66.9,57.9,73,29.91,10.0,SSW,13.8,-,N/A,,Mostly Cloudy,200,2014-03-03 04:53:00
11:25 PM,66.2,59.0,78,29.90,10.0,SSW,16.1,24.2,N/A,,Mostly Cloudy,200,2014-03-03 05:25:00
11:37 PM,66.2,59.0,78,29.89,10.0,SSW,15.0,20.7,N/A,,Scattered Clouds,200,2014-03-03 05:37:00
11:53 PM,66.9,59.0,76,29.89,10.0,SSW,16.1,24.2,N/A,,Mostly Cloudy,200,2014-03-03 05:53:00